Weather Roundup
Issued by NWS Chicago, IL

Home | Current Version | Previous Version | Graphics & Text | Print | Product List | Glossary On
Versions: 1 2 3 4 5 6 7 8 9 10 11 12 13 14 15 16 17 18 19 20 21 22 23 24 25 26 27 28 29 30 31 32 33 34 35 36 37 38 39 40 41 42 43 44 45 46 47 48 49 50
000
NZUS59 KLOT 240904
HRRLOT

CHICAGO AREA WEATHER ROUNDUP
NATIONAL WEATHER SERVICE CHICAGO/ROMEOVILLE IL
400 AM CDT MON JUL 24 2017

NOTE: "FAIR" INDICATES FEW OR NO CLOUDS BELOW 12,000 FEET WITH NO
SIGNIFICANT WEATHER AND/OR OBSTRUCTIONS TO VISIBILITY.

* THESE STATIONS ARE NOT UNDER NWS QUALITY CONTROL. THEY ALSO MAY NOT
  REPORT WEATHER SUCH AS PRECIPITATION OR FOG.

ILZ005-006-012>014-019>023-241000-
NORTHEAST ILLINOIS

CITY           SKY/WX    TMP DP  RH WIND       PRES   REMARKS
OHARE          CLOUDY    68  60  75 N9        29.93R
MIDWAY         CLOUDY    70  62  76 N12       29.92R
AURORA         CLOUDY    65  63  93 NE7       29.94R
LANSING*       CLOUDY    68  61  78 N9        29.92R
JOLIET*        MOCLDY    69  65  88 NE10      29.92S
WAUKEGAN       CLOUDY    65  62  90 N6        29.94R
DUPAGE AIRPORT CLOUDY    65  62  90 NE10      29.94R
WHEELING       MOCLDY    66  64  93 N3        29.95R
MORRIS*        CLOUDY    67  65  94 CALM      29.92R
NORTHERLY ISL    N/A     68  61  78 N8          N/A
$$

WIZ051-052-058>065-066-070>072-241000-
SOUTHEAST WISCONSIN

CITY           SKY/WX    TMP DP  RH WIND       PRES   REMARKS
MILWAUKEE      CLOUDY    65  60  84 N9        29.95S
KENOSHA*       MOCLDY    63  59  87 N6        29.96R
RACINE*        CLOUDY    64  61  90 N8        29.96S
$$

INZ001>003-010>013-019-020-241000-
NORTHWEST INDIANA

CITY           SKY/WX    TMP DP  RH WIND       PRES   REMARKS
GARY*          CLOUDY    70  63  77 N12G18    29.93R
MICHIGAN CITY* NOT AVBL
RENSSELAER*    NOT AVBL
VALPARAISO     CLOUDY    69  65  86 N9        29.92R
$$

LMZ740>746-241000-
SOUTHERN LAKE MICHIGAN

STATION/POSITION TIME  SKY/WX   TEMP WIND        PRES    VSBY
                                AIR  DIR/SP/G
                 (UTC)          (F)  (DEG/KT/KT) (MB)    (MI)
HARRISON CRIB    0840            69   10/ 16/ 19   N/A
BURNHAM HARBOR   0900            68                N/A
CALUMET HARBOR   0830            69  350/  9/ 15 1012.7S
BURNS HARBOR     0840            70   10/ 14/ 18 1013.5R
MICHIGAN CITY    0840            69  360/ 18/ 21   N/A
$$

ABBREVIATIONS USED IN REMARKS
   TC - TEMPERATURE IN CELSIUS
  WCI - WIND CHILL INDEX
   HX - HEAT INDEX
  VSB - VISIBILITY
$$



USA.gov is the U.S. government's official web portal to all federal, state and local government web resources and services.